DateTimeUTC,F1_A11,F1_S11,BsB_S11,BsG_S11,BsR_S11,BbsB_S11,BbsG_S11,BbsR_S11,BaB_A11,BaG_A11,BaR_A11,Tu_S11,T_S11,Uu_S11,U_S11,P_S11,T1_A11
2021-03-06T00:00:00Z,00000200,20000000,,,,,,,-000.15,-000.45,0000.24,17.6,24.7,02.9,01.9,0658.3,31.0
2021-03-06T00:01:00Z,00000200,20000000,,,,,,,0000.02,0000.43,-000.39,17.6,24.7,02.9,01.9,0658.4,31.0
2021-03-06T00:02:00Z,00000200,20000000,,,,,,,0000.04,-000.17,0000.39,17.6,24.7,02.9,01.9,0658.4,31.0
2021-03-06T00:03:00Z,00000200,60000000,,,,,,,0000.16,-000.08,-000.21,17.6,24.7,02.9,01.9,0658.4,31.0
2021-03-06T00:04:00Z,00000200,40000000,0000.41,0000.46,0000.63,0000.39,0000.05,0000.39,0000.16,0000.32,0000.20,17.7,24.6,02.9,01.9,0659.3,30.9
2021-03-06T00:05:00Z,00000200,00000000,0000.53,0000.36,0000.77,0000.39,0000.06,0000.05,0000.39,0000.48,0000.47,17.8,24.5,02.9,01.9,0659.3,31.0
2021-03-06T00:06:00Z,00000200,00000000,0000.11,0000.53,0000.36,-000.02,0000.09,0000.11,0000.05,-000.05,0000.05,17.8,24.5,03.0,02.0,0659.3,31.0
2021-03-06T00:07:00Z,00000200,00000000,0000.58,0000.48,0000.51,0000.26,0000.15,-000.03,0000.33,0000.05,0000.13,17.8,24.5,02.9,01.9,0659.3,31.0
2021-03-06T00:08:00Z,00000200,00000000,0000.31,0000.63,0000.70,0000.02,0000.05,0000.02,0000.43,0000.77,0000.02,17.8,24.5,03.0,02.0,0659.3,31.0
2021-03-06T00:09:00Z,00000200,00000000,0000.74,0000.62,0000.34,-000.05,-000.04,0000.21,0000.22,0000.29,0000.50,17.8,24.5,03.1,02.0,0659.3,31.0
2021-03-06T00:10:00Z,00000200,00000000,0000.76,0000.80,0000.48,0000.26,0000.14,-000.04,0000.11,0000.09,0000.27,17.8,24.5,03.0,02.0,0659.3,31.0
2021-03-06T00:11:00Z,00000200,00000000,0000.58,0000.64,0000.48,-000.32,0000.27,0000.12,0000.49,0000.32,0000.02,17.8,24.5,03.0,02.0,0659.3,31.0
2021-03-06T00:12:00Z,00000200,00000000,0000.32,0000.47,0000.61,0000.75,0000.20,0000.05,0000.26,0000.34,0000.26,17.8,24.5,03.0,02.0,0659.3,31.0
2021-03-06T00:13:00Z,00000200,00000000,0001.01,0000.65,0000.62,-000.05,0000.19,0000.05,0000.43,0000.11,0000.27,17.8,24.5,03.0,02.0,0659.3,30.9
2021-03-06T00:14:00Z,00000200,00000000,0000.24,0000.19,0000.56,0000.14,-000.01,0000.03,0000.23,0000.24,0000.24,17.8,24.5,03.1,02.0,0659.3,30.9
2021-03-06T00:15:00Z,00000200,00000000,0000.57,0000.57,0000.50,-000.02,0000.02,0000.11,0000.27,0000.19,0000.03,17.8,24.5,03.1,02.0,0659.3,30.9
2021-03-06T00:16:00Z,00000200,00000000,0000.64,0000.37,0000.87,0000.29,0000.04,0000.05,0000.80,0000.67,0000.47,17.8,24.4,03.0,02.0,0659.3,30.9
2021-03-06T00:17:00Z,00000200,00000000,0000.59,0000.68,0000.38,-000.34,0000.23,0000.06,0000.02,0000.35,-000.15,17.9,24.5,03.0,02.0,0659.3,31.0
2021-03-06T00:18:00Z,00000200,00000000,0001.09,0000.58,0000.38,0000.08,0000.08,0000.05,0000.36,0000.10,0000.33,17.9,24.5,03.0,02.0,0659.3,31.0
2021-03-06T00:19:00Z,00000200,00000000,0001.20,0000.69,0000.63,0000.43,0000.17,0000.11,0000.37,0000.53,0000.35,17.9,24.5,03.1,02.0,0659.3,31.0
2021-03-06T00:20:00Z,00000200,00000000,0001.15,0000.68,0000.37,0000.43,0000.18,-000.00,0000.58,0000.26,0000.49,17.9,24.5,02.9,01.9,0659.3,31.0
2021-03-06T00:21:00Z,00000200,00000000,0000.84,0000.40,0000.44,0000.77,0000.28,-000.07,0000.21,0000.22,0000.10,18.0,24.5,03.0,02.0,0659.3,31.0
2021-03-06T00:22:00Z,00000200,00000000,0000.90,0000.69,0000.44,-000.14,0000.04,-000.03,0000.28,0000.57,0000.19,17.9,24.5,03.1,02.1,0659.2,31.0
2021-03-06T00:23:00Z,00000200,00000000,0000.77,0000.96,0000.79,-000.03,0000.22,0000.26,0000.48,0000.51,0000.26,17.9,24.5,03.1,02.1,0659.2,31.0
2021-03-06T00:24:00Z,00000200,00000000,0000.42,0000.78,0000.64,0000.02,0000.07,0000.17,0000.62,0000.26,0000.22,17.9,24.5,03.2,02.1,0659.2,31.0
2021-03-06T00:25:00Z,00000200,00000000,0001.39,0000.83,0000.37,0000.58,-000.04,-000.20,0000.10,0000.15,0000.59,17.9,24.5,03.2,02.1,0659.3,31.0
2021-03-06T00:26:00Z,00000200,00000000,0000.82,0000.68,0000.73,0000.35,0000.21,-000.26,0000.71,0000.45,-000.14,17.9,24.5,03.1,02.0,0659.3,31.0
2021-03-06T00:27:00Z,00000200,00000000,0001.08,0000.79,0000.55,0000.38,0000.04,0000.24,0000.34,-000.00,0000.37,17.9,24.5,03.1,02.1,0659.2,31.0
2021-03-06T00:28:00Z,00000200,00000000,0000.95,0001.03,0000.53,-000.04,-000.04,0000.02,0000.46,0000.56,0000.65,17.9,24.5,03.2,02.1,0659.2,31.0
2021-03-06T00:29:00Z,00000200,00000000,0000.44,0000.71,0000.71,0000.39,0000.18,-000.02,-000.07,0000.17,-000.14,17.9,24.5,03.2,02.2,0659.2,31.0
2021-03-06T00:30:00Z,00000200,00000000,0001.27,0000.79,0000.16,-000.01,0000.10,-000.28,0000.76,0000.73,0000.37,17.9,24.5,03.1,02.1,0659.2,30.9
2021-03-06T00:31:00Z,00000200,00000000,0001.35,0000.73,0000.54,-000.14,0000.09,0000.08,0000.56,0000.48,0000.60,17.9,24.5,03.2,02.1,0659.2,31.0
2021-03-06T00:32:00Z,00000200,00000000,0000.60,0000.76,0000.73,0000.18,0000.06,-000.16,0000.44,0000.65,0000.09,18.0,24.5,03.2,02.1,0659.2,31.0
2021-03-06T00:33:00Z,00000200,00000000,0001.02,0000.78,0000.80,-000.02,0000.21,0000.12,0000.99,0000.68,0000.86,18.1,24.6,03.2,02.2,0659.2,31.0
2021-03-06T00:34:00Z,00000200,00000000,0000.86,0000.79,0000.58,0000.03,0000.06,0000.04,0000.10,-000.20,0000.18,18.1,24.6,03.1,02.1,0659.3,31.0
2021-03-06T00:35:00Z,00000200,00000000,0000.36,0000.81,0000.71,-000.03,0000.09,-000.11,0000.80,0001.01,0000.44,18.1,24.6,03.1,02.1,0659.3,31.0
2021-03-06T00:36:00Z,00000200,00000000,0000.27,0000.94,0000.34,0000.15,0000.17,-000.01,0000.10,0000.19,0000.04,18.1,24.6,03.1,02.1,0659.3,31.0
2021-03-06T00:37:00Z,00000200,00000000,0000.93,0000.70,0000.57,0000.19,-000.21,-000.21,0000.73,0000.41,0000.61,18.1,24.6,03.0,02.0,0659.3,31.0
2021-03-06T00:38:00Z,00000200,00000000,0000.49,0000.78,0000.82,-000.21,0000.29,-000.05,-000.07,0000.46,0000.07,18.1,24.6,03.1,02.1,0659.2,31.0
2021-03-06T00:39:00Z,00000200,00000000,0000.91,0000.76,0001.02,-000.22,0000.14,0000.25,0001.25,0000.49,0000.72,18.1,24.6,03.2,02.1,0659.2,31.0
2021-03-06T00:40:00Z,00000200,00000000,0001.13,0000.77,0000.75,0000.24,0000.10,0000.07,0000.56,0000.59,0000.15,18.1,24.6,03.2,02.1,0659.2,31.0
2021-03-06T00:41:00Z,00000200,00000000,0000.70,0000.70,0001.04,0000.48,-000.02,0000.24,0000.44,0000.53,0000.90,18.0,24.6,03.1,02.1,0659.2,31.0
2021-03-06T00:42:00Z,00000200,00000000,0001.12,0001.04,0000.91,0000.44,-000.01,-000.18,0000.67,0000.52,-000.10,18.0,24.6,03.1,02.1,0659.2,31.0
2021-03-06T00:43:00Z,00000200,00000000,0000.68,0001.08,0001.02,0000.56,0000.16,0000.02,0000.56,0000.70,0000.19,18.0,24.6,03.1,02.1,0659.1,31.0
2021-03-06T00:44:00Z,00000200,00000000,0000.74,0001.28,0000.95,0000.14,0000.20,0000.09,0000.45,0000.33,0000.64,18.0,24.6,03.2,02.1,0659.0,31.0
2021-03-06T00:45:00Z,00000200,00000000,0000.75,0000.93,0000.93,0000.48,0000.31,-000.07,0000.66,0000.57,0000.29,18.0,24.6,03.2,02.1,0659.0,31.0
2021-03-06T00:46:00Z,00000200,00000000,0000.80,0001.23,0000.99,0000.43,0000.28,-000.08,0000.60,0000.57,0000.54,18.0,24.6,03.2,02.1,0659.0,31.0
2021-03-06T00:47:00Z,00000200,00000000,0001.15,0001.21,0000.50,0000.08,0000.22,0000.02,0000.69,0000.63,0000.49,18.0,24.6,03.2,02.2,0659.1,31.0
2021-03-06T00:48:00Z,00000200,00000000,0001.64,0001.09,0000.88,0000.10,0000.20,0000.09,0000.71,0000.37,0000.40,18.0,24.6,03.2,02.2,0659.1,31.0
2021-03-06T00:49:00Z,00000200,00000000,0001.40,0001.25,0000.80,0000.27,0000.36,0000.11,0000.61,0000.74,0000.43,18.0,24.6,03.3,02.2,0659.1,31.0
2021-03-06T00:50:00Z,00000200,00000000,0001.11,0001.44,0001.19,0000.23,0000.23,0000.12,0000.56,0000.42,0000.53,18.0,24.6,03.2,02.2,0659.1,31.0
2021-03-06T00:51:00Z,00000200,00000000,0001.08,0001.20,0000.66,0000.16,0000.05,-000.01,0000.73,0000.89,0000.64,18.0,24.6,03.3,02.2,0659.1,30.9
2021-03-06T00:52:00Z,00000200,00000000,0001.46,0001.19,0000.80,0000.56,0000.19,-000.25,0000.38,0000.12,0000.16,18.0,24.6,03.3,02.2,0659.2,30.9
2021-03-06T00:53:00Z,00000200,00000000,0002.07,0001.03,0000.75,0000.16,0000.29,-000.04,0000.75,0000.43,0000.27,18.0,24.5,03.2,02.1,0659.2,31.0
2021-03-06T00:54:00Z,00000200,00000000,0001.13,0001.09,0001.06,-000.05,0000.33,-000.01,0000.35,0000.91,0000.19,18.0,24.6,03.2,02.1,0659.2,31.0
2021-03-06T00:55:00Z,00000200,00000000,0001.65,0001.64,0000.84,0000.48,0000.20,-000.00,0001.01,0000.31,0000.85,18.0,24.5,03.1,02.1,0659.2,31.0
2021-03-06T00:56:00Z,00000200,00000000,0001.10,0001.38,0000.71,-000.02,-000.02,0000.15,0000.46,0000.87,0000.16,18.0,24.6,03.1,02.1,0659.2,31.0
2021-03-06T00:57:00Z,00000200,40000000,,,,,,,0000.27,-000.15,0000.12,18.0,24.6,03.1,02.1,0659.4,31.0
2021-03-06T00:58:00Z,00000200,60000000,,,,,,,-000.10,0000.14,0000.13,17.7,24.7,03.2,02.1,0658.3,31.0
2021-03-06T00:59:00Z,00000200,20000000,,,,,,,0000.08,0000.26,-000.08,17.7,24.8,02.9,01.9,0658.3,31.0
